Location: Franzen
(48.6167°N, 15.3833°E)
Time: 09:01:06
(UTC+00:00)

A-11 Canister half - Pass Details

Date: 31 July 2021
Orbit: 1515 x 1685 km, 47.2° (Epoch: 21 September)

Event Time Altitude Azimuth Distance (km) Brightness Sun altitude
Rises 15:10:00 0° 208° (SSW) 4,760 12.0 32.3°
Reaches altitude 10° 15:13:21 10° 200° (SSW) 3,802 11.5 31.8°
Maximum altitude 15:21:53 36° 138° (SE) 2,370 10.0 30.4°
Drops below altitude 10° 15:30:40 10° 77° (ENE) 3,925 10.7 29.0°
Sets 15:34:10 0° 70° (ENE) 4,929 11.1 28.4°
